• Em Portugal
  • Lista de países
  • Para 7 dias
  • Temperatura da água
  • Mapas de satélite
  • Mapa do tempo
  • Widgets de tempo
  • user-avatar
    Iniciar Sessão

    Previsão horária em Panevėžys

    Hoje, 22 Outubro, Segunda-feira

    Tempo Temperatura Precipitação Vento Pressão Humidade
    00:00 +5°C° 0 mm 3 m/s 764 mmHg 92%
    01:00 +5°C° 0 mm 4 m/s 763 mmHg 92%
    02:00 +5°C° 0 mm 4 m/s 763 mmHg 92%
    03:00 +5°C° 0 mm 4 m/s 762 mmHg 92%
    04:00 +5°C° 0 mm 4 m/s 762 mmHg 93%
    05:00 +5°C° 0 mm 5 m/s 761 mmHg 93%
    06:00 +5°C° 0 mm 5 m/s 761 mmHg 91%
    07:00 +5°C° 0 mm 5 m/s 761 mmHg 89%
    08:00 +5°C° 0 mm 5 m/s 760 mmHg 88%
    09:00 +6°C° 0 mm 5 m/s 760 mmHg 85%
    10:00 +5°C° 0 mm 6 m/s 759 mmHg 83%
    11:00 +7°C° 0 mm 6 m/s 759 mmHg 80%
    12:00 +7°C° 0.2 mm 6 m/s 758 mmHg 81%
    13:00 +7°C° 0.2 mm 6 m/s 758 mmHg 81%
    14:00 +8°C° 0.2 mm 6 m/s 757 mmHg 82%
    15:00 +8°C° 1 mm 6 m/s 757 mmHg 85%
    16:00 +8°C° 1 mm 5 m/s 756 mmHg 88%
    17:00 +8°C° 1 mm 5 m/s 756 mmHg 90%
    18:00 +7°C° 0.2 mm 4 m/s 756 mmHg 89%
    19:00 +7°C° 0.2 mm 4 m/s 756 mmHg 88%
    20:00 +6°C° 0.2 mm 4 m/s 756 mmHg 86%
    21:00 +6°C° 0 mm 4 m/s 756 mmHg 86%
    22:00 +5°C° 0 mm 3 m/s 757 mmHg 86%
    23:00 +4°C° 0 mm 3 m/s 757 mmHg 85%

    Amanhã, 23 Outubro, Terça-feira

    Tempo Temperatura Precipitação Vento Pressão Humidade
    00:00 +4°C° 0 mm 3 m/s 757 mmHg 85%
    01:00 +3°C° 0 mm 3 m/s 756 mmHg 85%
    02:00 +3°C° 0 mm 3 m/s 756 mmHg 86%
    03:00 +3°C° 0 mm 3 m/s 756 mmHg 86%
    04:00 +3°C° 0 mm 3 m/s 755 mmHg 86%
    05:00 +2°C° 0 mm 3 m/s 754 mmHg 86%
    06:00 +3°C° 0 mm 3 m/s 754 mmHg 86%
    07:00 +3°C° 0 mm 4 m/s 753 mmHg 86%
    08:00 +3°C° 0 mm 4 m/s 752 mmHg 86%
    09:00 +3°C° 0 mm 5 m/s 751 mmHg 84%
    10:00 +5°C° 0 mm 5 m/s 750 mmHg 82%
    11:00 +5°C° 0 mm 6 m/s 749 mmHg 79%
    12:00 +5°C° 0.2 mm 7 m/s 747 mmHg 79%
    13:00 +5°C° 0.2 mm 7 m/s 746 mmHg 79%
    14:00 +5°C° 0.2 mm 7 m/s 744 mmHg 79%
    15:00 +5°C° 1.2 mm 8 m/s 742 mmHg 80%
    16:00 +4°C° 1.2 mm 8 m/s 740 mmHg 82%
    17:00 +3°C° 1.2 mm 9 m/s 738 mmHg 84%
    18:00 +4°C° 1 mm 8 m/s 737 mmHg 86%
    19:00 +4°C° 1 mm 7 m/s 736 mmHg 88%
    20:00 +5°C° 1 mm 6 m/s 734 mmHg 90%
    21:00 +6°C° 0.7 mm 5 m/s 734 mmHg 91%
    22:00 +6°C° 0.7 mm 5 m/s 733 mmHg 92%
    23:00 +6°C° 0.7 mm 4 m/s 732 mmHg 93%

    Depois de amanhã, 24 Outubro, Quarta-feira

    Tempo Temperatura Precipitação Vento Pressão Humidade
    00:00 +6°C° 0.1 mm 4 m/s 732 mmHg 92%
    01:00 +5°C° 0.1 mm 4 m/s 731 mmHg 92%
    02:00 +5°C° 0.1 mm 4 m/s 731 mmHg 92%
    03:00 +4°C° 0 mm 4 m/s 731 mmHg 91%
    04:00 +4°C° 0 mm 4 m/s 731 mmHg 91%
    05:00 +4°C° 0 mm 4 m/s 730 mmHg 91%
    06:00 +4°C° 0 mm 4 m/s 731 mmHg 90%
    07:00 +4°C° 0 mm 4 m/s 731 mmHg 89%
    08:00 +3°C° 0 mm 5 m/s 731 mmHg 88%
    09:00 +5°C° 0.1 mm 5 m/s 732 mmHg 86%
    10:00 +6°C° 0.1 mm 5 m/s 732 mmHg 83%
    11:00 +7°C° 0.1 mm 5 m/s 733 mmHg 81%
    12:00 +7°C° 0.4 mm 6 m/s 734 mmHg 80%
    13:00 +6°C° 0.4 mm 7 m/s 735 mmHg 78%
    14:00 +6°C° 0.4 mm 8 m/s 736 mmHg 77%
    15:00 +6°C° 0.3 mm 8 m/s 737 mmHg 78%
    16:00 +5°C° 0.3 mm 8 m/s 739 mmHg 79%
    17:00 +5°C° 0.3 mm 8 m/s 740 mmHg 80%
    18:00 +5°C° 0.2 mm 8 m/s 741 mmHg 80%
    19:00 +4°C° 0.2 mm 8 m/s 742 mmHg 80%
    20:00 +4°C° 0.2 mm 7 m/s 743 mmHg 80%
    21:00 +4°C° 0 mm 7 m/s 744 mmHg 80%
    22:00 +4°C° 0 mm 6 m/s 745 mmHg 79%
    23:00 +3°C° 0 mm 6 m/s 746 mmHg 79%

    25 Outubro, Quinta-feira

    Tempo Temperatura Precipitação Vento Pressão Humidade
    00:00 +3°C° 0 mm 6 m/s 746 mmHg 81%
    01:00 +3°C° 0 mm 5 m/s 746 mmHg 82%
    02:00 +2°C° 0 mm 5 m/s 747 mmHg 84%
    03:00 +2°C° 0 mm 5 m/s 747 mmHg 85%
    04:00 +2°C° 0 mm 5 m/s 747 mmHg 86%
    05:00 +2°C° 0 mm 5 m/s 747 mmHg 86%
    06:00 +3°C° 0 mm 4 m/s 747 mmHg 86%
    07:00 +3°C° 0 mm 4 m/s 747 mmHg 85%
    08:00 +3°C° 0 mm 4 m/s 747 mmHg 85%
    09:00 +4°C° 0 mm 4 m/s 747 mmHg 79%
    10:00 +5°C° 0 mm 4 m/s 747 mmHg 73%
    11:00 +6°C° 0 mm 5 m/s 746 mmHg 67%
    12:00 +6°C° 0 mm 4 m/s 746 mmHg 64%
    13:00 +7°C° 0 mm 4 m/s 746 mmHg 62%
    14:00 +7°C° 0 mm 4 m/s 745 mmHg 60%
    15:00 +7°C° 0 mm 3 m/s 745 mmHg 65%
    16:00 +7°C° 0 mm 2 m/s 745 mmHg 70%
    17:00 +6°C° 0 mm 2 m/s 744 mmHg 75%
    18:00 +6°C° 0 mm 2 m/s 744 mmHg 79%
    19:00 +6°C° 0 mm 2 m/s 744 mmHg 83%
    20:00 +5°C° 0 mm 2 m/s 744 mmHg 86%
    21:00 +5°C° 0.1 mm 2 m/s 744 mmHg 88%
    22:00 +5°C° 0.1 mm 2 m/s 744 mmHg 90%
    23:00 +4°C° 0.1 mm 3 m/s 744 mmHg 92%

    26 Outubro, Sexta-feira

    Tempo Temperatura Precipitação Vento Pressão Humidade
    00:00 +3°C° 0 mm 3 m/s 745 mmHg 92%
    01:00 +3°C° 0 mm 3 m/s 745 mmHg 92%
    02:00 +3°C° 0 mm 3 m/s 745 mmHg 92%
    03:00 +2°C° 0 mm 3 m/s 745 mmHg 91%
    04:00 +2°C° 0 mm 3 m/s 745 mmHg 91%
    05:00 +3°C° 0 mm 2 m/s 745 mmHg 91%
    06:00 +2°C° 0 mm 3 m/s 745 mmHg 90%
    07:00 +2°C° 0 mm 3 m/s 746 mmHg 89%
    08:00 +2°C° 0 mm 3 m/s 746 mmHg 89%
    09:00 +4°C° 0 mm 3 m/s 746 mmHg 84%
    10:00 +5°C° 0 mm 3 m/s 746 mmHg 79%
    11:00 +8°C° 0 mm 3 m/s 746 mmHg 74%
    12:00 +9°C° 0 mm 3 m/s 745 mmHg 72%
    13:00 +8°C° 0 mm 4 m/s 745 mmHg 69%
    14:00 +10°C° 0 mm 4 m/s 745 mmHg 66%
    15:00 +10°C° 0.6 mm 4 m/s 745 mmHg 74%
    16:00 +8°C° 0.6 mm 4 m/s 744 mmHg 82%
    17:00 +7°C° 0.6 mm 5 m/s 744 mmHg 89%
    18:00 +7°C° 0.5 mm 5 m/s 744 mmHg 89%
    19:00 +7°C° 0.5 mm 6 m/s 743 mmHg 88%
    20:00 +8°C° 0.5 mm 6 m/s 743 mmHg 87%
    21:00 +7°C° 0 mm 6 m/s 743 mmHg 86%
    22:00 +7°C° 0 mm 6 m/s 743 mmHg 85%
    23:00 +6°C° 0 mm 7 m/s 743 mmHg 84%

    27 Outubro, Sábado

    Tempo Temperatura Precipitação Vento Pressão Humidade
    00:00 +7°C° 0.1 mm 6 m/s 744 mmHg 84%
    01:00 +7°C° 0.1 mm 6 m/s 744 mmHg 83%
    02:00 +7°C° 0.1 mm 6 m/s 744 mmHg 83%
    03:00 +6°C° 0 mm 5 m/s 744 mmHg 84%
    04:00 +6°C° 0 mm 5 m/s 745 mmHg 86%
    05:00 +5°C° 0 mm 5 m/s 745 mmHg 87%
    06:00 +5°C° 0 mm 5 m/s 745 mmHg 88%
    07:00 +5°C° 0 mm 5 m/s 745 mmHg 89%
    08:00 +5°C° 0 mm 4 m/s 746 mmHg 91%
    09:00 +6°C° 0 mm 5 m/s 746 mmHg 85%
    10:00 +7°C° 0 mm 5 m/s 746 mmHg 80%
    11:00 +8°C° 0 mm 5 m/s 747 mmHg 75%
    12:00 +8°C° 0 mm 5 m/s 747 mmHg 73%
    13:00 +8°C° 0 mm 4 m/s 747 mmHg 71%
    14:00 +10°C° 0 mm 4 m/s 747 mmHg 68%
    15:00 +9°C° 0.1 mm 3 m/s 747 mmHg 73%
    16:00 +8°C° 0.1 mm 3 m/s 747 mmHg 77%
    17:00 +8°C° 0.1 mm 2 m/s 747 mmHg 81%
    18:00 +7°C° 0.3 mm 2 m/s 747 mmHg 83%
    19:00 +8°C° 0.3 mm 1 m/s 747 mmHg 86%
    20:00 +8°C° 0.3 mm 1 m/s 747 mmHg 88%
    21:00 +8°C° 0.4 mm 1 m/s 747 mmHg 88%
    22:00 +7°C° 0.4 mm 1 m/s 747 mmHg 89%
    23:00 +7°C° 0.4 mm 1 m/s 747 mmHg 89%

    28 Outubro, Domingo

    Tempo Temperatura Precipitação Vento Pressão Humidade
    00:00 +6°C° 0.5 mm 2 m/s 747 mmHg 90%
    01:00 +6°C° 0.5 mm 2 m/s 747 mmHg 90%
    02:00 +5°C° 0.5 mm 3 m/s 747 mmHg 91%
    03:00 +5°C° 0.2 mm 3 m/s 747 mmHg 92%
    04:00 +5°C° 0.2 mm 3 m/s 748 mmHg 92%
    05:00 +5°C° 0.2 mm 3 m/s 748 mmHg 92%
    06:00 +4°C° 0 mm 3 m/s 749 mmHg 93%
    07:00 +4°C° 0 mm 3 m/s 749 mmHg 93%
    08:00 +4°C° 0 mm 3 m/s 750 mmHg 94%
    09:00 +5°C° 0 mm 3 m/s 750 mmHg 90%
    10:00 +5°C° 0 mm 3 m/s 751 mmHg 85%
    11:00 +7°C° 0 mm 3 m/s 751 mmHg 81%
    12:00 +6°C° 0 mm 4 m/s 751 mmHg 79%
    13:00 +6°C° 0 mm 4 m/s 752 mmHg 78%
    14:00 +7°C° 0 mm 4 m/s 752 mmHg 76%
    15:00 +6°C° 0 mm 4 m/s 752 mmHg 78%
    16:00 +5°C° 0 mm 4 m/s 753 mmHg 81%
    17:00 +5°C° 0 mm 4 m/s 753 mmHg 83%
    18:00 +5°C° 0 mm 4 m/s 753 mmHg 83%
    19:00 +4°C° 0 mm 4 m/s 754 mmHg 83%
    20:00 +4°C° 0 mm 4 m/s 754 mmHg 83%
    21:00 +4°C° 0 mm 4 m/s 754 mmHg 82%
    22:00 +3°C° 0 mm 4 m/s 754 mmHg 80%
    23:00 +3°C° 0 mm 4 m/s 755 mmHg 79%
    Mostrar mais